When you browse on this site, cookies collect data to enhance your experience and personalize the content and advertising you see.
Visit our Privacy Policy to learn more. By continuing to use the site, you agree to this use of cookies and data.
  • In Austria
  • List of Countries
  • For 7 days
  • Water Temperature
  • Satellite Maps
  • Weather Map
  • News
  • Weather Widgets
  • user-avatar
    Login

    Hourly Weather Batina

    Today, 17 November, Saturday

    Time Temperature Precipitation Wind Pressure Humidity
    00:00 +11°C° 0 mm 1 mps 669 mmHg 83%
    01:00 +11°C° 0 mm 1 mps 668 mmHg 84%
    02:00 +10°C° 0 mm 1 mps 668 mmHg 84%
    03:00 +10°C° 0 mm 1 mps 668 mmHg 85%
    04:00 +10°C° 0.1 mm 1 mps 668 mmHg 86%
    05:00 +9°C° 0.1 mm 0 mps 668 mmHg 86%
    06:00 +9°C° 0.1 mm 0 mps 667 mmHg 87%
    07:00 +9°C° 0.1 mm 0 mps 668 mmHg 82%
    08:00 +10°C° 0.1 mm 0 mps 668 mmHg 77%
    09:00 +11°C° 0.1 mm 0 mps 668 mmHg 72%
    10:00 +13°C° 0.2 mm 1 mps 668 mmHg 69%
    11:00 +13°C° 0.2 mm 1 mps 668 mmHg 65%
    12:00 +14°C° 0.2 mm 2 mps 668 mmHg 61%
    13:00 +14°C° 0.3 mm 2 mps 667 mmHg 61%
    14:00 +14°C° 0.3 mm 2 mps 667 mmHg 61%
    15:00 +14°C° 0.3 mm 2 mps 667 mmHg 61%
    16:00 +13°C° 0.3 mm 2 mps 667 mmHg 67%
    17:00 +12°C° 0.3 mm 2 mps 666 mmHg 72%
    18:00 +10°C° 0.3 mm 2 mps 666 mmHg 78%
    19:00 +11°C° 0 mm 1 mps 666 mmHg 80%
    20:00 +11°C° 0 mm 1 mps 666 mmHg 83%
    21:00 +10°C° 0 mm 1 mps 667 mmHg 85%
    22:00 +10°C° 0 mm 1 mps 666 mmHg 86%
    23:00 +9°C° 0 mm 1 mps 666 mmHg 87%

    Tomorrow, 18 November, Sunday

    Time Temperature Precipitation Wind Pressure Humidity
    00:00 +8°C° 0 mm 0 mps 666 mmHg 88%
    01:00 +8°C° 0 mm 0 mps 665 mmHg 89%
    02:00 +8°C° 0 mm 0 mps 665 mmHg 89%
    03:00 +8°C° 0 mm 1 mps 665 mmHg 90%
    04:00 +8°C° 0 mm 1 mps 665 mmHg 89%
    05:00 +8°C° 0 mm 1 mps 665 mmHg 89%
    06:00 +8°C° 0 mm 1 mps 665 mmHg 89%
    07:00 +8°C° 0 mm 2 mps 666 mmHg 82%
    08:00 +10°C° 0 mm 2 mps 666 mmHg 75%
    09:00 +12°C° 0 mm 2 mps 667 mmHg 68%
    10:00 +12°C° 0 mm 3 mps 667 mmHg 63%
    11:00 +13°C° 0 mm 4 mps 667 mmHg 57%
    12:00 +14°C° 0 mm 5 mps 666 mmHg 52%
    13:00 +14°C° 0 mm 4 mps 666 mmHg 53%
    14:00 +14°C° 0 mm 4 mps 666 mmHg 54%
    15:00 +14°C° 0 mm 4 mps 665 mmHg 55%
    16:00 +13°C° 0 mm 4 mps 665 mmHg 61%
    17:00 +12°C° 0 mm 3 mps 665 mmHg 66%
    18:00 +11°C° 0 mm 3 mps 665 mmHg 72%
    19:00 +11°C° 0 mm 3 mps 665 mmHg 72%
    20:00 +11°C° 0 mm 3 mps 665 mmHg 72%
    21:00 +11°C° 0 mm 3 mps 665 mmHg 72%
    22:00 +10°C° 0 mm 3 mps 665 mmHg 73%
    23:00 +10°C° 0 mm 3 mps 664 mmHg 74%

    Day after tomorrow, 19 November, Monday

    Time Temperature Precipitation Wind Pressure Humidity
    00:00 +10°C° 0 mm 4 mps 664 mmHg 75%
    01:00 +10°C° 0 mm 4 mps 664 mmHg 75%
    02:00 +10°C° 0 mm 4 mps 663 mmHg 75%
    03:00 +10°C° 0 mm 3 mps 663 mmHg 76%
    04:00 +9°C° 0.1 mm 3 mps 663 mmHg 77%
    05:00 +9°C° 0.1 mm 3 mps 662 mmHg 78%
    06:00 +9°C° 0.1 mm 3 mps 662 mmHg 79%
    07:00 +9°C° 0 mm 5 mps 662 mmHg 72%
    08:00 +10°C° 0 mm 6 mps 662 mmHg 65%
    09:00 +11°C° 0 mm 8 mps 663 mmHg 58%
    10:00 +11°C° 0.4 mm 8 mps 662 mmHg 61%
    11:00 +11°C° 0.4 mm 8 mps 661 mmHg 63%
    12:00 +10°C° 0.4 mm 8 mps 660 mmHg 65%
    13:00 +10°C° 0.3 mm 8 mps 660 mmHg 65%
    14:00 +10°C° 0.3 mm 8 mps 660 mmHg 64%
    15:00 +10°C° 0.3 mm 8 mps 659 mmHg 63%
    16:00 +10°C° 0.1 mm 6 mps 659 mmHg 66%
    17:00 +9°C° 0.1 mm 5 mps 659 mmHg 69%
    18:00 +10°C° 0.1 mm 4 mps 659 mmHg 71%
    19:00 +8°C° 0.2 mm 4 mps 659 mmHg 73%
    20:00 +8°C° 0.2 mm 4 mps 659 mmHg 76%
    21:00 +9°C° 0.2 mm 3 mps 659 mmHg 78%
    22:00 +7°C° 0.1 mm 4 mps 659 mmHg 78%
    23:00 +7°C° 0.1 mm 4 mps 659 mmHg 78%

    20 November, Tuesday

    Time Temperature Precipitation Wind Pressure Humidity
    00:00 +6°C° 0.1 mm 4 mps 659 mmHg 78%
    01:00 +6°C° 0 mm 5 mps 659 mmHg 78%
    02:00 +6°C° 0 mm 5 mps 659 mmHg 77%
    03:00 +5°C° 0 mm 6 mps 659 mmHg 76%
    04:00 +5°C° 0 mm 6 mps 659 mmHg 76%
    05:00 +5°C° 0 mm 6 mps 659 mmHg 76%
    06:00 +5°C° 0 mm 6 mps 659 mmHg 76%
    07:00 +7°C° 0 mm 6 mps 660 mmHg 73%
    08:00 +8°C° 0 mm 6 mps 662 mmHg 71%
    09:00 +9°C° 0 mm 5 mps 663 mmHg 68%
    10:00 +9°C° 0 mm 5 mps 663 mmHg 65%
    11:00 +10°C° 0 mm 5 mps 664 mmHg 62%
    12:00 +12°C° 0 mm 4 mps 664 mmHg 59%
    13:00 +12°C° 0 mm 5 mps 664 mmHg 58%
    14:00 +12°C° 0 mm 5 mps 664 mmHg 57%
    15:00 +12°C° 0 mm 5 mps 664 mmHg 56%
    16:00 +11°C° 0 mm 4 mps 665 mmHg 61%
    17:00 +10°C° 0 mm 4 mps 665 mmHg 65%
    18:00 +10°C° 0 mm 3 mps 665 mmHg 69%
    19:00 +9°C° 0 mm 3 mps 665 mmHg 69%
    20:00 +9°C° 0 mm 3 mps 666 mmHg 70%
    21:00 +9°C° 0 mm 3 mps 666 mmHg 70%
    22:00 +9°C° 0 mm 3 mps 666 mmHg 70%
    23:00 +9°C° 0 mm 3 mps 666 mmHg 70%

    21 November, Wednesday

    Time Temperature Precipitation Wind Pressure Humidity
    00:00 +7°C° 0 mm 4 mps 666 mmHg 70%
    01:00 +8°C° 0 mm 3 mps 666 mmHg 69%
    02:00 +8°C° 0 mm 3 mps 666 mmHg 68%
    03:00 +8°C° 0 mm 3 mps 666 mmHg 67%
    04:00 +8°C° 0 mm 3 mps 666 mmHg 67%
    05:00 +8°C° 0 mm 3 mps 666 mmHg 67%
    06:00 +7°C° 0 mm 3 mps 666 mmHg 67%
    07:00 +8°C° 0 mm 4 mps 667 mmHg 61%
    08:00 +9°C° 0 mm 5 mps 668 mmHg 55%
    09:00 +10°C° 0 mm 6 mps 669 mmHg 50%
    10:00 +11°C° 0 mm 6 mps 669 mmHg 47%
    11:00 +13°C° 0 mm 6 mps 669 mmHg 43%
    12:00 +14°C° 0 mm 7 mps 669 mmHg 40%
    13:00 +13°C° 0 mm 6 mps 669 mmHg 42%
    14:00 +13°C° 0 mm 6 mps 669 mmHg 43%
    15:00 +13°C° 0 mm 6 mps 669 mmHg 44%
    16:00 +12°C° 0 mm 5 mps 670 mmHg 49%
    17:00 +11°C° 0 mm 3 mps 670 mmHg 54%
    18:00 +10°C° 0 mm 2 mps 670 mmHg 59%
    19:00 +10°C° 0 mm 2 mps 670 mmHg 60%
    20:00 +10°C° 0 mm 2 mps 671 mmHg 61%
    21:00 +9°C° 0 mm 2 mps 671 mmHg 62%
    22:00 +9°C° 0 mm 2 mps 671 mmHg 62%
    23:00 +9°C° 0 mm 2 mps 671 mmHg 62%

    22 November, Thursday

    Time Temperature Precipitation Wind Pressure Humidity
    00:00 +9°C° 0 mm 2 mps 671 mmHg 62%
    01:00 +9°C° 0 mm 2 mps 671 mmHg 62%
    02:00 +8°C° 0 mm 2 mps 671 mmHg 61%
    03:00 +8°C° 0 mm 2 mps 671 mmHg 61%
    04:00 +8°C° 0 mm 2 mps 671 mmHg 60%
    05:00 +8°C° 0 mm 2 mps 671 mmHg 59%
    06:00 +8°C° 0 mm 2 mps 671 mmHg 58%
    07:00 +10°C° 0 mm 2 mps 672 mmHg 52%
    08:00 +12°C° 0 mm 2 mps 673 mmHg 45%
    09:00 +14°C° 0 mm 2 mps 674 mmHg 38%
    10:00 +14°C° 0 mm 3 mps 674 mmHg 36%
    11:00 +16°C° 0 mm 3 mps 674 mmHg 33%
    12:00 +17°C° 0 mm 4 mps 674 mmHg 30%
    13:00 +17°C° 0 mm 4 mps 673 mmHg 30%
    14:00 +15°C° 0 mm 4 mps 673 mmHg 31%
    15:00 +15°C° 0 mm 4 mps 673 mmHg 31%
    16:00 +14°C° 0 mm 3 mps 673 mmHg 35%
    17:00 +13°C° 0 mm 3 mps 673 mmHg 39%
    18:00 +12°C° 0 mm 2 mps 673 mmHg 43%
    19:00 +12°C° 0 mm 2 mps 673 mmHg 44%
    20:00 +12°C° 0 mm 2 mps 673 mmHg 46%
    21:00 +10°C° 0 mm 2 mps 673 mmHg 47%
    22:00 +10°C° 0 mm 2 mps 673 mmHg 47%
    23:00 +9°C° 0 mm 2 mps 673 mmHg 47%
    Show more